AAL645 KPHX-PHOG

Flight info

Callsign AAL645
Flight time 6h 21m
Altitude 32000
Route KEENS3 HRRBR CURIV J212 DECAS LAX DINTY R576 DIALO/N0447F340 R576 DENNS LNDHY1
Aircraft A21N/M-SDE2E3FGHIRWXY/LB1

Departure

Time 2026-04-22 13:49
Airport Phoenix Sky Harbor International Airport (KPHX)

Arrival

Time 2026-04-22 20:10
Airport Kahului International Airport (PHOG)
Time Latitude Longitude Altitude Speed Heading
2026-04-22 12:47 33.43840 -111.99705 1139 ft 0 kts 170°
2026-04-22 13:30 33.43837 -111.99704 1136 ft 3 kts 176°
2026-04-22 13:30 33.43816 -111.99718 1136 ft 4 kts 220°
2026-04-22 13:30 33.43800 -111.99743 1137 ft 4 kts 241°
2026-04-22 13:31 33.43797 -111.99770 1137 ft 4 kts 285°
2026-04-22 13:31 33.43815 -111.99782 1138 ft 4 kts 347°
2026-04-22 13:31 33.43828 -111.99783 1139 ft 0 kts
2026-04-22 13:37 33.43837 -111.99783 1136 ft 2 kts 360°
2026-04-22 13:38 33.43855 -111.99783 1137 ft 3 kts 360°
2026-04-22 13:38 33.43918 -111.99822 1137 ft 7 kts 333°
2026-04-22 13:38 33.43965 -111.99864 1142 ft 10 kts 293°
2026-04-22 13:39 33.43973 -111.99952 1140 ft 11 kts 270°
2026-04-22 13:39 33.43973 -112.00050 1137 ft 12 kts 270°
2026-04-22 13:39 33.43973 -112.00157 1137 ft 13 kts 270°
2026-04-22 13:39 33.43974 -112.00269 1137 ft 11 kts 270°
2026-04-22 13:40 33.43964 -112.00358 1137 ft 12 kts 234°
2026-04-22 13:40 33.43885 -112.00382 1137 ft 13 kts 180°
2026-04-22 13:40 33.43794 -112.00382 1140 ft 14 kts 179°
2026-04-22 13:40 33.43697 -112.00381 1138 ft 14 kts 180°
2026-04-22 13:41 33.43595 -112.00381 1137 ft 15 kts 180°
2026-04-22 13:41 33.43486 -112.00382 1137 ft 16 kts 180°
2026-04-22 13:41 33.43373 -112.00382 1138 ft 17 kts 180°
2026-04-22 13:41 33.43286 -112.00382 1136 ft 13 kts 180°
2026-04-22 13:42 33.43226 -112.00411 1139 ft 10 kts 243°
2026-04-22 13:42 33.43215 -112.00498 1137 ft 11 kts 270°
2026-04-22 13:42 33.43215 -112.00597 1140 ft 12 kts 270°
2026-04-22 13:42 33.43214 -112.00703 1138 ft 13 kts 270°
2026-04-22 13:43 33.43215 -112.00817 1138 ft 14 kts 270°
2026-04-22 13:43 33.43215 -112.00937 1138 ft 15 kts 270°
2026-04-22 13:43 33.43215 -112.01063 1138 ft 16 kts 270°
2026-04-22 13:43 33.43215 -112.01196 1137 ft 16 kts 270°
2026-04-22 13:44 33.43215 -112.01334 1136 ft 17 kts 270°
2026-04-22 13:44 33.43215 -112.01478 1135 ft 18 kts 270°
2026-04-22 13:44 33.43215 -112.01625 1135 ft 18 kts 270°
2026-04-22 13:44 33.43216 -112.01779 1138 ft 19 kts 270°
2026-04-22 13:45 33.43215 -112.01938 1136 ft 19 kts 270°
2026-04-22 13:45 33.43215 -112.02101 1137 ft 20 kts 270°
2026-04-22 13:45 33.43214 -112.02269 1137 ft 20 kts 268°
2026-04-22 13:45 33.43215 -112.02419 1138 ft 15 kts 270°
2026-04-22 13:46 33.43215 -112.02543 1138 ft 15 kts 270°
2026-04-22 13:46 33.43215 -112.02635 1138 ft 7 kts 269°
2026-04-22 13:46 33.43200 -112.02681 1136 ft 6 kts 221°
2026-04-22 13:46 33.43157 -112.02696 1133 ft 7 kts 185°
2026-04-22 13:47 33.43121 -112.02688 1134 ft 5 kts 140°
2026-04-22 13:47 33.43107 -112.02653 1132 ft 4 kts 98°
2026-04-22 13:47 33.43107 -112.02638 1132 ft 0 kts 91°
2026-04-22 13:48 33.43105 -112.02415 1131 ft 66 kts 90°
2026-04-22 13:48 33.43108 -112.01559 1134 ft 137 kts 90°
2026-04-22 13:48 33.43109 -112.00206 1144 ft 187 kts 89°
2026-04-22 13:48 33.43096 -111.98616 1718 ft 191 kts 91°
2026-04-22 13:49 33.43081 -111.97046 2443 ft 192 kts 92°
2026-04-22 13:49 33.43153 -111.95449 3164 ft 193 kts 83°
2026-04-22 13:49 33.43306 -111.93847 3888 ft 194 kts 84°
2026-04-22 13:49 33.43428 -111.92238 4622 ft 195 kts 85°
2026-04-22 13:50 33.43522 -111.90614 5336 ft 196 kts 87°
2026-04-22 13:50 33.43570 -111.88982 6055 ft 196 kts 92°
2026-04-22 13:50 33.43353 -111.87388 6753 ft 193 kts 114°
2026-04-22 13:50 33.42673 -111.86029 7416 ft 192 kts 136°
2026-04-22 13:51 33.41615 -111.84936 7552 ft 227 kts 152°
2026-04-22 13:51 33.40068 -111.84215 7758 ft 242 kts 178°
2026-04-22 13:51 33.38390 -111.84351 8369 ft 245 kts 198°
2026-04-22 13:51 33.36831 -111.85204 8949 ft 249 kts 218°
2026-04-22 13:52 33.35682 -111.86657 9527 ft 233 kts 239°
2026-04-22 13:52 33.35157 -111.88459 10168 ft 231 kts 262°
2026-04-22 13:52 33.35272 -111.90385 10833 ft 236 kts 277°
2026-04-22 13:52 33.35591 -111.92323 11423 ft 238 kts 277°
2026-04-22 13:53 33.35905 -111.94297 11993 ft 246 kts 277°
2026-04-22 13:53 33.36232 -111.96367 12361 ft 261 kts 276°
2026-04-22 13:53 33.36499 -111.98550 12713 ft 276 kts 274°
2026-04-22 13:53 33.36677 -112.00898 13091 ft 291 kts 271°
2026-04-22 13:54 33.36846 -112.03369 13501 ft 305 kts 273°
2026-04-22 13:54 33.37108 -112.05942 13922 ft 319 kts 275°
2026-04-22 13:54 33.37463 -112.08628 14255 ft 333 kts 277°
2026-04-22 13:54 33.37857 -112.11377 14811 ft 338 kts 277°
2026-04-22 13:55 33.38267 -112.14154 15434 ft 340 kts 278°
2026-04-22 13:55 33.38681 -112.16949 16075 ft 342 kts 278°
2026-04-22 13:55 33.39089 -112.19726 16735 ft 344 kts 278°
2026-04-22 13:55 33.39508 -112.22558 17377 ft 347 kts 278°
2026-04-22 13:56 33.39935 -112.25404 18019 ft 349 kts 278°
2026-04-22 13:56 33.40363 -112.28272 18609 ft 351 kts 278°
2026-04-22 13:56 33.40790 -112.31156 19136 ft 353 kts 278°
2026-04-22 13:56 33.41212 -112.34064 19665 ft 356 kts 278°
2026-04-22 13:57 33.41634 -112.36988 20203 ft 358 kts 278°
2026-04-22 13:57 33.42058 -112.39932 20743 ft 359 kts 278°
2026-04-22 13:57 33.42488 -112.42886 21273 ft 362 kts 278°
2026-04-22 13:57 33.42922 -112.45858 21800 ft 364 kts 278°
2026-04-22 13:58 33.43352 -112.48809 22332 ft 366 kts 278°
2026-04-22 13:58 33.43788 -112.51813 22842 ft 367 kts 278°
2026-04-22 13:58 33.44226 -112.54833 23366 ft 369 kts 278°
2026-04-22 13:58 33.44666 -112.57871 23835 ft 371 kts 278°
2026-04-22 13:59 33.44993 -112.60935 24257 ft 372 kts 272°
2026-04-22 13:59 33.45064 -112.64032 24682 ft 372 kts 270°
2026-04-22 13:59 33.45095 -112.67132 25099 ft 373 kts 270°
2026-04-22 13:59 33.45127 -112.70243 25505 ft 374 kts 270°
2026-04-22 14:00 33.45171 -112.73360 25899 ft 375 kts 270°
2026-04-22 14:00 33.45209 -112.76448 26298 ft 376 kts 270°
2026-04-22 14:00 33.45292 -112.79582 26677 ft 378 kts 274°
2026-04-22 14:00 33.45715 -112.82694 27037 ft 380 kts 280°
2026-04-22 14:01 33.46297 -112.85791 27399 ft 382 kts 281°
2026-04-22 14:01 33.46897 -112.88895 27756 ft 383 kts 281°
2026-04-22 14:01 33.47492 -112.92008 28107 ft 384 kts 281°
2026-04-22 14:01 33.48086 -112.95134 28451 ft 385 kts 281°
2026-04-22 14:02 33.48672 -112.98274 28794 ft 387 kts 281°
2026-04-22 14:02 33.49258 -113.01423 29120 ft 388 kts 281°
2026-04-22 14:02 33.49844 -113.04581 29468 ft 389 kts 281°
2026-04-22 14:02 33.50423 -113.07706 29792 ft 390 kts 281°
2026-04-22 14:03 33.51010 -113.10877 30175 ft 389 kts 280°
2026-04-22 14:03 33.51597 -113.14035 30573 ft 387 kts 281°
2026-04-22 14:03 33.52182 -113.17173 30963 ft 385 kts 280°
2026-04-22 14:03 33.52761 -113.20294 31334 ft 383 kts 281°
2026-04-22 14:04 33.53339 -113.23399 31688 ft 381 kts 280°
2026-04-22 14:04 33.53911 -113.26499 31969 ft 380 kts 280°
2026-04-22 14:04 33.55032 -113.32651 32042 ft 380 kts 280°
2026-04-22 14:05 33.56156 -113.38843 32029 ft 380 kts 280°
2026-04-22 14:05 33.57284 -113.45044 32165 ft 381 kts 280°
2026-04-22 14:06 33.57848 -113.48153 32188 ft 382 kts 280°
2026-04-22 14:06 33.58993 -113.54374 32198 ft 382 kts 281°
2026-04-22 14:07 33.60162 -113.60589 32199 ft 382 kts 280°
2026-04-22 14:07 33.61301 -113.66766 32205 ft 382 kts 280°
2026-04-22 14:08 33.62462 -113.72982 32182 ft 382 kts 280°
2026-04-22 14:08 33.63617 -113.79207 32152 ft 382 kts 280°
2026-04-22 14:09 33.64757 -113.85435 32117 ft 382 kts 280°
2026-04-22 14:09 33.65900 -113.91663 32090 ft 382 kts 280°
2026-04-22 14:10 33.67040 -113.97894 32046 ft 382 kts 280°
2026-04-22 14:10 33.68183 -114.04086 32035 ft 382 kts 280°
2026-04-22 14:11 33.69328 -114.10321 32039 ft 384 kts 280°
2026-04-22 14:11 33.70467 -114.16580 32043 ft 384 kts 280°
2026-04-22 14:12 33.71613 -114.22843 32047 ft 384 kts 280°
2026-04-22 14:12 33.72749 -114.29106 32048 ft 384 kts 279°
2026-04-22 14:13 33.73879 -114.35368 32054 ft 384 kts 279°
2026-04-22 14:13 33.74998 -114.41617 32053 ft 383 kts 279°
2026-04-22 14:14 33.76105 -114.47830 32038 ft 383 kts 279°
2026-04-22 14:14 33.77185 -114.54097 32046 ft 382 kts 277°
2026-04-22 14:15 33.77661 -114.60432 32048 ft 380 kts 272°
2026-04-22 14:15 33.78018 -114.66785 32044 ft 381 kts 272°
2026-04-22 14:16 33.78376 -114.73102 32048 ft 381 kts 272°
2026-04-22 14:16 33.78741 -114.79459 32059 ft 381 kts 272°
2026-04-22 14:17 33.79102 -114.85818 32060 ft 381 kts 272°
2026-04-22 14:17 33.79459 -114.92172 32055 ft 379 kts 272°
2026-04-22 14:18 33.79798 -114.98523 32060 ft 381 kts 272°
2026-04-22 14:18 33.80154 -115.04887 32061 ft 382 kts 272°
2026-04-22 14:19 33.80499 -115.11253 32057 ft 382 kts 272°
2026-04-22 14:19 33.80839 -115.17581 32073 ft 382 kts 272°
2026-04-22 14:20 33.81346 -115.27077 32065 ft 379 kts 272°
2026-04-22 14:20 33.81680 -115.33402 32079 ft 379 kts 272°
2026-04-22 14:21 33.82184 -115.42891 32077 ft 379 kts 272°
2026-04-22 14:22 33.82655 -115.52374 32075 ft 379 kts 272°
2026-04-22 14:23 33.83104 -115.61817 32087 ft 379 kts 272°
2026-04-22 14:23 33.83399 -115.68152 32085 ft 380 kts 272°
2026-04-22 14:24 33.83699 -115.74500 32087 ft 380 kts 272°
2026-04-22 14:24 33.83990 -115.80851 32087 ft 380 kts 272°
2026-04-22 14:25 33.84292 -115.87197 32080 ft 380 kts 272°
2026-04-22 14:25 33.84581 -115.93508 32096 ft 380 kts 272°
2026-04-22 14:26 33.84859 -115.99856 32092 ft 381 kts 272°
2026-04-22 14:26 33.85146 -116.06213 32102 ft 381 kts 272°
2026-04-22 14:27 33.85422 -116.12545 32119 ft 378 kts 272°
2026-04-22 14:27 33.85697 -116.18867 32104 ft 378 kts 272°
2026-04-22 14:28 33.85965 -116.25148 32100 ft 378 kts 271°
2026-04-22 14:28 33.86233 -116.31514 32096 ft 383 kts 271°
2026-04-22 14:29 33.86495 -116.37917 32112 ft 383 kts 271°
2026-04-22 14:29 33.86762 -116.44319 32115 ft 383 kts 271°
2026-04-22 14:30 33.87024 -116.50722 32128 ft 383 kts 271°
2026-04-22 14:30 33.87283 -116.57078 32091 ft 383 kts 271°
2026-04-22 14:31 33.87529 -116.63499 32106 ft 385 kts 270°
2026-04-22 14:31 33.87772 -116.69941 32113 ft 386 kts 270°
2026-04-22 14:32 33.88025 -116.76379 32112 ft 385 kts 271°
2026-04-22 14:32 33.88274 -116.82815 32120 ft 385 kts 271°
2026-04-22 14:33 33.88511 -116.89213 32134 ft 387 kts 270°
2026-04-22 14:33 33.88743 -116.95692 32160 ft 385 kts 270°
2026-04-22 14:34 33.88973 -117.02120 32132 ft 385 kts 270°
2026-04-22 14:34 33.89162 -117.07470 32138 ft 385 kts 270°
2026-04-22 14:35 33.89393 -117.13896 32137 ft 384 kts 270°
2026-04-22 14:35 33.89657 -117.21373 32181 ft 386 kts 270°
2026-04-22 14:36 33.89838 -117.26779 32179 ft 386 kts 270°
2026-04-22 14:36 33.90056 -117.33194 32181 ft 386 kts 270°
2026-04-22 14:37 33.90271 -117.39651 32209 ft 386 kts 270°
2026-04-22 14:37 33.90486 -117.46106 32211 ft 386 kts 270°
2026-04-22 14:38 33.90704 -117.52554 32223 ft 385 kts 270°
2026-04-22 14:38 33.90902 -117.59001 32225 ft 385 kts 270°
2026-04-22 14:39 33.91102 -117.65451 32219 ft 385 kts 270°
2026-04-22 14:39 33.91307 -117.71850 32219 ft 385 kts 270°
2026-04-22 14:40 33.91597 -117.81509 32212 ft 381 kts 270°
2026-04-22 14:40 33.91776 -117.87897 32199 ft 382 kts 270°
2026-04-22 14:41 33.91961 -117.94284 32205 ft 382 kts 270°
2026-04-22 14:41 33.92147 -118.00633 32206 ft 382 kts 270°
2026-04-22 14:42 33.92328 -118.07018 32199 ft 382 kts 270°
2026-04-22 14:42 33.92498 -118.13416 32196 ft 382 kts 270°
2026-04-22 14:43 33.92664 -118.19818 32207 ft 383 kts 270°
2026-04-22 14:43 33.92840 -118.26216 32213 ft 382 kts 270°
2026-04-22 14:44 33.93008 -118.32616 32215 ft 382 kts 270°
2026-04-22 14:44 33.93168 -118.39015 32221 ft 383 kts 270°
2026-04-22 14:45 33.93097 -118.45374 32216 ft 382 kts 264°
2026-04-22 14:45 33.92514 -118.51736 32204 ft 382 kts 263°
2026-04-22 14:46 33.91910 -118.58093 32199 ft 382 kts 263°
2026-04-22 14:46 33.91324 -118.64454 32207 ft 382 kts 263°
2026-04-22 14:47 33.90734 -118.70811 32198 ft 382 kts 263°
2026-04-22 14:47 33.90140 -118.77172 32196 ft 382 kts 263°
2026-04-22 14:48 33.89551 -118.83464 32201 ft 380 kts 263°
2026-04-22 14:48 33.88947 -118.89783 32210 ft 380 kts 263°
2026-04-22 14:49 33.88340 -118.96098 32229 ft 380 kts 263°
2026-04-22 14:49 33.87728 -119.02418 32230 ft 380 kts 263°
2026-04-22 14:50 33.87121 -119.08736 32226 ft 380 kts 263°
2026-04-22 14:50 33.86515 -119.15058 32220 ft 380 kts 263°
2026-04-22 14:51 33.85908 -119.21341 32213 ft 381 kts 263°
2026-04-22 14:51 33.85295 -119.27670 32203 ft 381 kts 262°
2026-04-22 14:52 33.84677 -119.34005 32201 ft 381 kts 262°
2026-04-22 14:52 33.84052 -119.40333 32199 ft 381 kts 262°
2026-04-22 14:53 33.83425 -119.46657 32200 ft 381 kts 262°
2026-04-22 14:53 33.82793 -119.52982 32203 ft 381 kts 262°
2026-04-22 14:54 33.82164 -119.59264 32204 ft 381 kts 262°
2026-04-22 14:54 33.81528 -119.65582 32202 ft 381 kts 262°
2026-04-22 14:55 33.80888 -119.71899 32206 ft 381 kts 262°
2026-04-22 14:55 33.80240 -119.78219 32206 ft 381 kts 262°
2026-04-22 14:56 33.79592 -119.84535 32215 ft 380 kts 262°
2026-04-22 14:56 33.78945 -119.90840 32212 ft 380 kts 262°
2026-04-22 14:57 33.78296 -119.97106 32215 ft 380 kts 262°
2026-04-22 14:57 33.77639 -120.03410 32216 ft 380 kts 262°
2026-04-22 14:58 33.76979 -120.09713 32221 ft 380 kts 262°
2026-04-22 14:58 33.76317 -120.16010 32221 ft 379 kts 261°
2026-04-22 14:59 33.75648 -120.22294 32241 ft 379 kts 262°
2026-04-22 14:59 33.74981 -120.28545 32230 ft 380 kts 262°
2026-04-22 15:00 33.74310 -120.34829 32230 ft 379 kts 262°
2026-04-22 15:00 33.73636 -120.41120 32233 ft 380 kts 261°
2026-04-22 15:01 33.72957 -120.47407 32232 ft 380 kts 261°
2026-04-22 15:01 33.72274 -120.53699 32234 ft 380 kts 261°
2026-04-22 15:02 33.71589 -120.59985 32234 ft 380 kts 261°
2026-04-22 15:02 33.70908 -120.66229 32236 ft 380 kts 261°
2026-04-22 15:03 33.70220 -120.72516 32237 ft 380 kts 261°
2026-04-22 15:03 33.69525 -120.78805 32239 ft 380 kts 261°
2026-04-22 15:04 33.68829 -120.85089 32243 ft 380 kts 261°
2026-04-22 15:04 33.68129 -120.91370 32242 ft 380 kts 261°
2026-04-22 15:05 33.67425 -120.97647 32231 ft 380 kts 261°
2026-04-22 15:05 33.66722 -121.03893 32241 ft 380 kts 261°
2026-04-22 15:06 33.66011 -121.10175 32248 ft 380 kts 261°
2026-04-22 15:06 33.65297 -121.16457 32248 ft 380 kts 261°
2026-04-22 15:07 33.64579 -121.22739 32250 ft 380 kts 261°
2026-04-22 15:07 33.63860 -121.29019 32251 ft 380 kts 261°
2026-04-22 15:08 33.63136 -121.35309 32254 ft 380 kts 261°
2026-04-22 15:08 33.62414 -121.41552 32258 ft 380 kts 261°
2026-04-22 15:09 33.61682 -121.47834 32259 ft 380 kts 261°
2026-04-22 15:09 33.60949 -121.54119 32257 ft 380 kts 261°
2026-04-22 15:10 33.60213 -121.60394 32276 ft 380 kts 261°
2026-04-22 15:10 33.59477 -121.66627 32266 ft 380 kts 261°
2026-04-22 15:11 33.58735 -121.72899 32263 ft 380 kts 261°
2026-04-22 15:11 33.57989 -121.79172 32263 ft 380 kts 261°
2026-04-22 15:12 33.57237 -121.85440 32262 ft 380 kts 261°
2026-04-22 15:12 33.56484 -121.91711 32263 ft 380 kts 261°
2026-04-22 15:13 33.55728 -121.97975 32271 ft 380 kts 261°
2026-04-22 15:13 33.54977 -122.04197 32272 ft 380 kts 261°
2026-04-22 15:14 33.54220 -122.10460 32268 ft 380 kts 261°
2026-04-22 15:14 33.53455 -122.16726 32269 ft 380 kts 261°
2026-04-22 15:15 33.52690 -122.22943 32272 ft 380 kts 261°
2026-04-22 15:15 33.51918 -122.29202 32272 ft 380 kts 260°
2026-04-22 15:16 33.51143 -122.35459 32269 ft 380 kts 261°
2026-04-22 15:16 33.50370 -122.41717 32274 ft 380 kts 261°
2026-04-22 15:17 33.49590 -122.47977 32276 ft 380 kts 261°
2026-04-22 15:17 33.48815 -122.54193 32274 ft 380 kts 260°
2026-04-22 15:18 33.47884 -122.60411 32274 ft 379 kts 256°
2026-04-22 15:18 33.46624 -122.66546 32276 ft 380 kts 256°
2026-04-22 15:19 33.45354 -122.72684 32348 ft 380 kts 256°
2026-04-22 15:19 33.44728 -122.75715 32664 ft 379 kts 256°
2026-04-22 15:19 33.44096 -122.78772 33053 ft 377 kts 256°
2026-04-22 15:20 33.43466 -122.81809 33423 ft 375 kts 256°
2026-04-22 15:20 33.42838 -122.84833 33757 ft 374 kts 256°
2026-04-22 15:20 33.42212 -122.87847 34051 ft 373 kts 256°
2026-04-22 15:20 33.41587 -122.90856 34273 ft 374 kts 256°
2026-04-22 15:21 33.40335 -122.96885 34299 ft 373 kts 256°
2026-04-22 15:21 33.39081 -123.02897 34283 ft 373 kts 256°
2026-04-22 15:22 33.37833 -123.08871 34278 ft 372 kts 256°
2026-04-22 15:22 33.36572 -123.14878 34278 ft 372 kts 256°
2026-04-22 15:23 33.35310 -123.20884 34299 ft 373 kts 256°
2026-04-22 15:23 33.34043 -123.26897 34297 ft 372 kts 256°
2026-04-22 15:24 33.32785 -123.32852 34286 ft 372 kts 256°
2026-04-22 15:24 33.31514 -123.38849 34282 ft 372 kts 256°
2026-04-22 15:25 33.30242 -123.44838 34297 ft 372 kts 256°
2026-04-22 15:25 33.28967 -123.50824 34288 ft 372 kts 256°
2026-04-22 15:26 33.27689 -123.56810 34286 ft 371 kts 256°
2026-04-22 15:26 33.26417 -123.62748 34296 ft 371 kts 256°
2026-04-22 15:27 33.25131 -123.68723 34291 ft 371 kts 255°
2026-04-22 15:27 33.23844 -123.74706 34291 ft 372 kts 255°
2026-04-22 15:28 33.22557 -123.80691 34301 ft 372 kts 255°
2026-04-22 15:28 33.21265 -123.86673 34302 ft 372 kts 255°
2026-04-22 15:29 33.19978 -123.92608 34304 ft 372 kts 255°
2026-04-22 15:30 33.18028 -124.01579 34293 ft 373 kts 255°
2026-04-22 15:30 33.16722 -124.07569 34298 ft 373 kts 255°
2026-04-22 15:31 33.15412 -124.13556 34305 ft 373 kts 255°
2026-04-22 15:31 33.14110 -124.19494 34302 ft 373 kts 255°
2026-04-22 15:32 33.12794 -124.25483 34298 ft 374 kts 255°
2026-04-22 15:32 33.11473 -124.31480 34301 ft 374 kts 255°
2026-04-22 15:33 33.10149 -124.37479 34296 ft 374 kts 255°
2026-04-22 15:33 33.08830 -124.43434 34288 ft 374 kts 255°
2026-04-22 15:34 33.07500 -124.49431 34290 ft 373 kts 255°
2026-04-22 15:34 33.06169 -124.55408 34297 ft 373 kts 255°
2026-04-22 15:35 33.05060 -124.60368 34296 ft 372 kts 255°
2026-04-22 15:35 33.03509 -124.67291 34298 ft 372 kts 255°
2026-04-22 15:36 33.02171 -124.73246 34298 ft 372 kts 255°
2026-04-22 15:36 33.00833 -124.79193 34300 ft 371 kts 255°
2026-04-22 15:37 32.99491 -124.85135 34304 ft 371 kts 255°
2026-04-22 15:37 32.98147 -124.91074 34303 ft 371 kts 255°
2026-04-22 15:38 32.96810 -124.96972 34304 ft 371 kts 255°
2026-04-22 15:38 32.94788 -125.05866 34306 ft 371 kts 255°
2026-04-22 15:39 32.93438 -125.11785 34306 ft 371 kts 255°
2026-04-22 15:39 32.92085 -125.17704 34307 ft 371 kts 255°
2026-04-22 15:40 32.90738 -125.23580 34309 ft 370 kts 255°
2026-04-22 15:40 32.89384 -125.29479 34304 ft 369 kts 255°
2026-04-22 15:41 32.88026 -125.35369 34308 ft 369 kts 255°
2026-04-22 15:41 32.86667 -125.41258 34309 ft 369 kts 255°
2026-04-22 15:42 32.85314 -125.47101 34311 ft 369 kts 255°
2026-04-22 15:42 32.83948 -125.52989 34302 ft 369 kts 255°
2026-04-22 15:43 32.82581 -125.58869 34309 ft 369 kts 255°
2026-04-22 15:43 32.81215 -125.64748 34310 ft 369 kts 255°
2026-04-22 15:44 32.79842 -125.70624 34309 ft 369 kts 255°
2026-04-22 15:44 32.78476 -125.76459 34302 ft 369 kts 255°
2026-04-22 15:45 32.77100 -125.82324 34309 ft 368 kts 255°
2026-04-22 15:45 32.75720 -125.88180 34311 ft 368 kts 255°
2026-04-22 15:46 32.74339 -125.94036 34310 ft 368 kts 255°
2026-04-22 15:46 32.72966 -125.99850 34321 ft 368 kts 255°
2026-04-22 15:47 32.71583 -126.05702 34316 ft 368 kts 255°
2026-04-22 15:47 32.70198 -126.11549 34313 ft 368 kts 255°
2026-04-22 15:48 32.68808 -126.17399 34311 ft 368 kts 255°
2026-04-22 15:48 32.67424 -126.23208 34310 ft 368 kts 255°
2026-04-22 15:49 32.66029 -126.29045 34320 ft 367 kts 255°
2026-04-22 15:49 32.64635 -126.34865 34316 ft 367 kts 255°
2026-04-22 15:50 32.63239 -126.40686 34319 ft 367 kts 255°
2026-04-22 15:50 32.61841 -126.46502 34319 ft 367 kts 255°
2026-04-22 15:51 32.60439 -126.52317 34317 ft 367 kts 255°
2026-04-22 15:51 32.59043 -126.58094 34316 ft 367 kts 255°
2026-04-22 15:52 32.57633 -126.63904 34316 ft 367 kts 255°
2026-04-22 15:52 32.56223 -126.69711 34317 ft 367 kts 255°
2026-04-22 15:53 32.54810 -126.75516 34315 ft 367 kts 254°
2026-04-22 15:53 32.53405 -126.81278 34316 ft 366 kts 254°
2026-04-22 15:54 32.51988 -126.87080 34315 ft 366 kts 254°
2026-04-22 15:54 32.50571 -126.92872 34316 ft 366 kts 254°
2026-04-22 15:55 32.49150 -126.98661 34321 ft 366 kts 254°
2026-04-22 15:55 32.47731 -127.04424 34318 ft 364 kts 254°
2026-04-22 15:56 32.46316 -127.10129 34321 ft 364 kts 254°
2026-04-22 15:56 32.44885 -127.15871 34323 ft 364 kts 254°
2026-04-22 15:57 32.43465 -127.21616 34320 ft 364 kts 254°
2026-04-22 15:57 32.42036 -127.27357 34320 ft 364 kts 254°
2026-04-22 15:58 32.40606 -127.33095 34320 ft 363 kts 254°
2026-04-22 15:58 32.39184 -127.38795 34323 ft 363 kts 254°
2026-04-22 15:59 32.37753 -127.44528 34322 ft 364 kts 254°
2026-04-22 15:59 32.36319 -127.50254 34323 ft 362 kts 254°
2026-04-22 16:00 32.34892 -127.55953 34325 ft 361 kts 254°
2026-04-22 16:00 32.33472 -127.61607 34324 ft 361 kts 254°
2026-04-22 16:01 32.32040 -127.67301 34316 ft 361 kts 254°
2026-04-22 16:01 32.30607 -127.72997 34319 ft 361 kts 253°
2026-04-22 16:02 32.29167 -127.78679 34322 ft 361 kts 253°
2026-04-22 16:02 32.27727 -127.84368 34331 ft 363 kts 253°
2026-04-22 16:03 32.26277 -127.90109 34330 ft 372 kts 254°
2026-04-22 16:03 32.24807 -127.95984 34314 ft 373 kts 254°
2026-04-22 16:04 32.23314 -128.01856 34324 ft 373 kts 253°
2026-04-22 16:04 32.21814 -128.07727 34324 ft 373 kts 253°
2026-04-22 16:05 32.20320 -128.13556 34322 ft 373 kts 253°
2026-04-22 16:05 32.18820 -128.19415 34316 ft 373 kts 253°
2026-04-22 16:06 32.17318 -128.25252 34320 ft 371 kts 253°
2026-04-22 16:06 32.15815 -128.31080 34323 ft 371 kts 253°
2026-04-22 16:07 32.14326 -128.36868 34326 ft 371 kts 253°
2026-04-22 16:07 32.12820 -128.42691 34325 ft 371 kts 253°
2026-04-22 16:08 32.11311 -128.48511 34327 ft 371 kts 253°
2026-04-22 16:08 32.09803 -128.54332 34326 ft 371 kts 253°
2026-04-22 16:09 32.08298 -128.60111 34321 ft 371 kts 253°
2026-04-22 16:09 32.06777 -128.65927 34321 ft 371 kts 253°
2026-04-22 16:10 32.05257 -128.71707 34323 ft 369 kts 253°
2026-04-22 16:10 32.03740 -128.77480 34326 ft 369 kts 253°
2026-04-22 16:11 32.02222 -128.83253 34325 ft 369 kts 253°
2026-04-22 16:11 32.00719 -128.88990 34322 ft 369 kts 253°
2026-04-22 16:12 31.99202 -128.94732 34322 ft 366 kts 253°
2026-04-22 16:12 31.97689 -129.00467 34323 ft 367 kts 253°
2026-04-22 16:13 31.96173 -129.06195 34322 ft 367 kts 253°
2026-04-22 16:13 31.94645 -129.11923 34322 ft 366 kts 253°
2026-04-22 16:14 31.93144 -129.17594 34323 ft 365 kts 252°
2026-04-22 16:14 31.91628 -129.23288 34322 ft 365 kts 253°
2026-04-22 16:15 31.90106 -129.28982 34322 ft 365 kts 252°
2026-04-22 16:15 31.88575 -129.34670 34322 ft 365 kts 252°
2026-04-22 16:16 31.87066 -129.40312 34321 ft 364 kts 252°
2026-04-22 16:16 31.85547 -129.45985 34322 ft 364 kts 252°
2026-04-22 16:17 31.84034 -129.51658 34322 ft 364 kts 252°
2026-04-22 16:17 31.82512 -129.57329 34321 ft 364 kts 252°
2026-04-22 16:18 31.80988 -129.62942 34320 ft 362 kts 252°
2026-04-22 16:18 31.79455 -129.68583 34322 ft 362 kts 252°
2026-04-22 16:19 31.77920 -129.74225 34322 ft 362 kts 252°
2026-04-22 16:19 31.76388 -129.79866 34322 ft 362 kts 252°
2026-04-22 16:20 31.74871 -129.85467 34320 ft 362 kts 252°
2026-04-22 16:20 31.73337 -129.91099 34321 ft 362 kts 252°
2026-04-22 16:21 31.71800 -129.96724 34319 ft 362 kts 252°
2026-04-22 16:21 31.70261 -130.02357 34319 ft 362 kts 252°
2026-04-22 16:22 31.67944 -130.10844 34318 ft 369 kts 252°
2026-04-22 16:23 31.65580 -130.19454 34318 ft 370 kts 252°
2026-04-22 16:23 31.64000 -130.25195 34318 ft 370 kts 252°
2026-04-22 16:24 31.61628 -130.33780 34316 ft 368 kts 251°
2026-04-22 16:25 31.60054 -130.39457 34319 ft 368 kts 251°
2026-04-22 16:25 31.57673 -130.48027 34311 ft 368 kts 251°
2026-04-22 16:26 31.56083 -130.53720 34315 ft 367 kts 251°
2026-04-22 16:26 31.54494 -130.59409 34316 ft 367 kts 251°
2026-04-22 16:27 31.52908 -130.65103 34316 ft 367 kts 251°
2026-04-22 16:27 31.51332 -130.70756 34316 ft 367 kts 251°
2026-04-22 16:28 31.49739 -130.76442 34318 ft 367 kts 251°
2026-04-22 16:28 31.48140 -130.82127 34319 ft 367 kts 251°
2026-04-22 16:29 31.46525 -130.87800 34316 ft 367 kts 251°
2026-04-22 16:29 31.44944 -130.93436 34313 ft 365 kts 251°
2026-04-22 16:30 31.43358 -130.99064 34318 ft 364 kts 251°
2026-04-22 16:30 31.41767 -131.04688 34317 ft 364 kts 251°
2026-04-22 16:31 31.40173 -131.10310 34316 ft 364 kts 251°
2026-04-22 16:31 31.38578 -131.15897 34316 ft 365 kts 251°
2026-04-22 16:32 31.36957 -131.21527 34318 ft 366 kts 251°
2026-04-22 16:32 31.35336 -131.27165 34317 ft 366 kts 251°
2026-04-22 16:33 31.33724 -131.32810 34316 ft 366 kts 251°
2026-04-22 16:33 31.32111 -131.38440 34314 ft 364 kts 251°
2026-04-22 16:34 31.30518 -131.44009 34313 ft 363 kts 251°
2026-04-22 16:34 31.28900 -131.49605 34313 ft 363 kts 251°
2026-04-22 16:35 31.27303 -131.55210 34317 ft 363 kts 251°
2026-04-22 16:35 31.25972 -131.59863 34315 ft 363 kts 250°
2026-04-22 16:36 31.24360 -131.65455 34313 ft 363 kts 250°
2026-04-22 16:36 31.22480 -131.71955 34311 ft 363 kts 250°
2026-04-22 16:37 31.21122 -131.76635 34313 ft 363 kts 250°
2026-04-22 16:37 31.19498 -131.82219 34313 ft 367 kts 250°
2026-04-22 16:38 31.17851 -131.87873 34311 ft 368 kts 250°
2026-04-22 16:38 31.15934 -131.94448 34310 ft 368 kts 250°
2026-04-22 16:39 31.14548 -131.99185 34300 ft 368 kts 250°
2026-04-22 16:39 31.12906 -132.04791 34314 ft 367 kts 250°
2026-04-22 16:40 31.11240 -132.10467 34319 ft 375 kts 250°
2026-04-22 16:41 31.08695 -132.19128 34312 ft 377 kts 250°
2026-04-22 16:41 31.06982 -132.24919 34311 ft 378 kts 250°
2026-04-22 16:42 31.05282 -132.30682 34312 ft 378 kts 250°
2026-04-22 16:42 31.03565 -132.36482 34312 ft 379 kts 250°
2026-04-22 16:43 31.01845 -132.42288 34306 ft 379 kts 250°
2026-04-22 16:43 31.00117 -132.48093 34313 ft 379 kts 250°
2026-04-22 16:44 30.98402 -132.53862 34316 ft 379 kts 250°
2026-04-22 16:44 30.96665 -132.59669 34313 ft 379 kts 250°
2026-04-22 16:45 30.94929 -132.65471 34315 ft 379 kts 250°
2026-04-22 16:45 30.93194 -132.71265 34313 ft 379 kts 250°
2026-04-22 16:46 30.91458 -132.77056 34312 ft 379 kts 250°
2026-04-22 16:46 30.89731 -132.82804 34313 ft 378 kts 250°
2026-04-22 16:47 30.87991 -132.88583 34316 ft 379 kts 250°
2026-04-22 16:47 30.86246 -132.94370 34315 ft 379 kts 250°
2026-04-22 16:48 30.84500 -133.00150 34316 ft 379 kts 250°
2026-04-22 16:48 30.82743 -133.05959 34307 ft 384 kts 249°
2026-04-22 16:49 30.80975 -133.11791 34313 ft 385 kts 249°
2026-04-22 16:49 30.79191 -133.17662 34314 ft 385 kts 249°
2026-04-22 16:50 30.77405 -133.23532 34319 ft 385 kts 249°
2026-04-22 16:50 30.75597 -133.29462 34316 ft 391 kts 249°
2026-04-22 16:51 30.73793 -133.35376 34313 ft 391 kts 249°
2026-04-22 16:51 30.71969 -133.41326 34316 ft 391 kts 249°
2026-04-22 16:52 30.70144 -133.47279 34313 ft 391 kts 249°
2026-04-22 16:52 30.68319 -133.53221 34313 ft 391 kts 249°
2026-04-22 16:53 30.66502 -133.59118 34314 ft 390 kts 249°
2026-04-22 16:53 30.64665 -133.65066 34319 ft 395 kts 249°
2026-04-22 16:54 30.62799 -133.71097 34318 ft 398 kts 249°
2026-04-22 16:54 30.60929 -133.77142 34312 ft 398 kts 249°
2026-04-22 16:55 30.59058 -133.83186 34317 ft 398 kts 249°
2026-04-22 16:55 30.57191 -133.89202 34312 ft 400 kts 249°
2026-04-22 16:56 30.55302 -133.95268 34312 ft 400 kts 249°
2026-04-22 16:56 30.53397 -134.01380 34316 ft 408 kts 250°
2026-04-22 16:57 30.51456 -134.07591 34313 ft 411 kts 250°
2026-04-22 16:57 30.49505 -134.13828 34312 ft 412 kts 250°
2026-04-22 16:58 30.47563 -134.20019 34309 ft 411 kts 250°
2026-04-22 16:58 30.45597 -134.26267 34308 ft 416 kts 250°
2026-04-22 16:59 30.43610 -134.32581 34310 ft 417 kts 250°
2026-04-22 16:59 30.41616 -134.38902 34311 ft 418 kts 250°
2026-04-22 17:00 30.39613 -134.45232 34308 ft 420 kts 250°
2026-04-22 17:00 30.36599 -134.54735 34313 ft 421 kts 250°
2026-04-22 17:01 30.34577 -134.61107 34312 ft 422 kts 250°
2026-04-22 17:01 30.32545 -134.67491 34308 ft 423 kts 250°
2026-04-22 17:02 30.30505 -134.73889 34303 ft 424 kts 250°
2026-04-22 17:02 30.28478 -134.80241 34303 ft 424 kts 250°
2026-04-22 17:03 30.26431 -134.86633 34303 ft 424 kts 250°
2026-04-22 17:03 30.24381 -134.93025 34303 ft 424 kts 250°
2026-04-22 17:04 30.22328 -134.99413 34307 ft 424 kts 250°
2026-04-22 17:04 30.20259 -135.05842 34304 ft 428 kts 250°
2026-04-22 17:05 30.18193 -135.12247 34308 ft 428 kts 250°
2026-04-22 17:05 30.16114 -135.18680 34302 ft 423 kts 250°
2026-04-22 17:06 30.14039 -135.25089 34300 ft 428 kts 250°
2026-04-22 17:06 30.11947 -135.31533 34306 ft 429 kts 250°
2026-04-22 17:07 30.09866 -135.37936 34306 ft 429 kts 250°
2026-04-22 17:07 30.07766 -135.44388 34299 ft 430 kts 250°
2026-04-22 17:08 30.05654 -135.50847 34308 ft 430 kts 250°
2026-04-22 17:08 30.03537 -135.57300 34303 ft 430 kts 250°
2026-04-22 17:09 30.01426 -135.63709 34304 ft 430 kts 251°
2026-04-22 17:09 29.99303 -135.70156 34302 ft 430 kts 251°
2026-04-22 17:10 29.97187 -135.76607 34304 ft 430 kts 251°
2026-04-22 17:10 29.95085 -135.83041 34305 ft 427 kts 251°
2026-04-22 17:11 29.92975 -135.89442 34299 ft 427 kts 251°
2026-04-22 17:11 29.90871 -135.95795 34303 ft 427 kts 251°
2026-04-22 17:12 29.88752 -136.02195 34298 ft 427 kts 251°
2026-04-22 17:12 29.86631 -136.08586 34303 ft 427 kts 251°
2026-04-22 17:13 29.84506 -136.14976 34302 ft 427 kts 251°
2026-04-22 17:13 29.82381 -136.21367 34299 ft 428 kts 251°
2026-04-22 17:14 29.80261 -136.27718 34301 ft 428 kts 250°
2026-04-22 17:14 29.78120 -136.34113 34299 ft 428 kts 250°
2026-04-22 17:15 29.75977 -136.40508 34298 ft 429 kts 251°
2026-04-22 17:15 29.73829 -136.46911 34301 ft 429 kts 250°
2026-04-22 17:16 29.71672 -136.53260 34291 ft 429 kts 250°
2026-04-22 17:16 29.69519 -136.59659 34300 ft 430 kts 250°
2026-04-22 17:17 29.67365 -136.66072 34299 ft 430 kts 250°
2026-04-22 17:17 29.65190 -136.72474 34299 ft 430 kts 250°
2026-04-22 17:18 29.63021 -136.78829 34299 ft 430 kts 250°
2026-04-22 17:18 29.60847 -136.85230 34293 ft 430 kts 250°
2026-04-22 17:19 29.56517 -136.98043 34294 ft 430 kts 250°
2026-04-22 17:20 29.52139 -137.10802 34290 ft 431 kts 250°
2026-04-22 17:21 29.48828 -137.20403 34295 ft 431 kts 250°
2026-04-22 17:22 29.45528 -137.30011 34287 ft 431 kts 250°
2026-04-22 17:23 29.42245 -137.39575 34291 ft 432 kts 250°
2026-04-22 17:23 29.38915 -137.49183 34292 ft 432 kts 250°
2026-04-22 17:24 29.36691 -137.55592 34296 ft 432 kts 250°
2026-04-22 17:24 29.34469 -137.61993 34288 ft 432 kts 250°
2026-04-22 17:25 29.32249 -137.68387 34279 ft 432 kts 250°
2026-04-22 17:25 29.30046 -137.74748 34283 ft 433 kts 250°
2026-04-22 17:26 29.27825 -137.81152 34290 ft 433 kts 249°
2026-04-22 17:26 29.25594 -137.87529 34282 ft 431 kts 249°
2026-04-22 17:27 29.23354 -137.93904 34285 ft 431 kts 249°
2026-04-22 17:27 29.21108 -138.00275 34274 ft 432 kts 249°
2026-04-22 17:28 29.18881 -138.06608 34289 ft 431 kts 249°
2026-04-22 17:28 29.16644 -138.12976 34286 ft 431 kts 249°
2026-04-22 17:29 29.14408 -138.19342 34286 ft 431 kts 249°
2026-04-22 17:29 29.12164 -138.25699 34278 ft 430 kts 249°
2026-04-22 17:30 29.09917 -138.32006 34287 ft 431 kts 249°
2026-04-22 17:30 29.07664 -138.38359 34288 ft 431 kts 249°
2026-04-22 17:31 29.05406 -138.44707 34283 ft 431 kts 249°
2026-04-22 17:31 29.03173 -138.51048 34279 ft 430 kts 249°
2026-04-22 17:32 29.00925 -138.57368 34288 ft 429 kts 249°
2026-04-22 17:32 28.98683 -138.63643 34277 ft 429 kts 249°
2026-04-22 17:33 28.96423 -138.69946 34281 ft 428 kts 249°
2026-04-22 17:33 28.94167 -138.76248 34279 ft 429 kts 249°
2026-04-22 17:34 28.91900 -138.82537 34276 ft 429 kts 249°
2026-04-22 17:34 28.89644 -138.88795 34273 ft 430 kts 249°
2026-04-22 17:35 28.87369 -138.95102 34273 ft 430 kts 249°
2026-04-22 17:35 28.85099 -139.01413 34272 ft 430 kts 249°
2026-04-22 17:36 28.82817 -139.07719 34271 ft 430 kts 249°
2026-04-22 17:36 28.80549 -139.14001 34275 ft 427 kts 248°
2026-04-22 17:37 28.78283 -139.20233 34270 ft 430 kts 249°
2026-04-22 17:37 28.76000 -139.26533 34272 ft 430 kts 248°
2026-04-22 17:38 28.73709 -139.32822 34272 ft 428 kts 248°
2026-04-22 17:38 28.71424 -139.39071 34273 ft 427 kts 248°
2026-04-22 17:39 28.69144 -139.45321 34272 ft 427 kts 248°
2026-04-22 17:40 28.65718 -139.54664 34269 ft 428 kts 248°
2026-04-22 17:40 28.63409 -139.60903 34265 ft 428 kts 248°
2026-04-22 17:41 28.61114 -139.67139 34264 ft 427 kts 248°
2026-04-22 17:41 28.58814 -139.73365 34266 ft 427 kts 248°
2026-04-22 17:42 28.56532 -139.79536 34257 ft 425 kts 248°
2026-04-22 17:42 28.54235 -139.85747 34259 ft 426 kts 248°
2026-04-22 17:43 28.51933 -139.91961 34259 ft 426 kts 248°
2026-04-22 17:43 28.49652 -139.98183 34259 ft 427 kts 248°
2026-04-22 17:44 28.47324 -140.04444 34264 ft 436 kts 248°
2026-04-22 17:44 28.44965 -140.10799 34253 ft 437 kts 248°
2026-04-22 17:45 28.42586 -140.17169 34259 ft 438 kts 248°
2026-04-22 17:45 28.40220 -140.23531 34253 ft 435 kts 248°
2026-04-22 17:46 28.37867 -140.29813 34255 ft 435 kts 248°
2026-04-22 17:46 28.35493 -140.36133 34254 ft 435 kts 248°
2026-04-22 17:47 28.33105 -140.42447 34253 ft 436 kts 248°
2026-04-22 17:47 28.30742 -140.48750 34254 ft 433 kts 248°
2026-04-22 17:48 28.28776 -140.53978 34251 ft 433 kts 248°
2026-04-22 17:48 28.26013 -140.61274 34250 ft 433 kts 248°
2026-04-22 17:49 28.23637 -140.67548 34255 ft 431 kts 248°
2026-04-22 17:49 28.21280 -140.73795 34242 ft 431 kts 248°
2026-04-22 17:50 28.18894 -140.80041 34249 ft 432 kts 248°
2026-04-22 17:50 28.16515 -140.86249 34247 ft 432 kts 248°
2026-04-22 17:51 28.14135 -140.92499 34250 ft 431 kts 248°
2026-04-22 17:51 28.11752 -140.98736 34249 ft 431 kts 248°
2026-04-22 17:52 28.09366 -141.04974 34244 ft 432 kts 248°
2026-04-22 17:52 28.07007 -141.11175 34245 ft 432 kts 248°
2026-04-22 17:53 28.04614 -141.17412 34243 ft 432 kts 248°
2026-04-22 17:53 28.02213 -141.23646 34245 ft 432 kts 248°
2026-04-22 17:54 27.99817 -141.29878 34244 ft 432 kts 248°
2026-04-22 17:54 27.97426 -141.36112 34234 ft 432 kts 248°
2026-04-22 17:55 27.95421 -141.41296 34243 ft 433 kts 248°
2026-04-22 17:55 27.92617 -141.48549 34244 ft 433 kts 248°
2026-04-22 17:56 27.90206 -141.54788 34245 ft 433 kts 248°
2026-04-22 17:56 27.87788 -141.61019 34243 ft 433 kts 248°
2026-04-22 17:57 27.85367 -141.67243 34240 ft 432 kts 248°
2026-04-22 17:57 27.82959 -141.73420 34241 ft 432 kts 248°
2026-04-22 17:58 27.80558 -141.79650 34242 ft 432 kts 248°
2026-04-22 17:58 27.78129 -141.85835 34240 ft 429 kts 248°
2026-04-22 17:59 27.75706 -141.91994 34243 ft 429 kts 248°
2026-04-22 17:59 27.73296 -141.98157 34244 ft 429 kts 248°
2026-04-22 18:00 27.71289 -142.03280 34234 ft 430 kts 248°
2026-04-22 18:00 27.68483 -142.10416 34243 ft 426 kts 248°
2026-04-22 18:01 27.66081 -142.16532 34243 ft 426 kts 248°
2026-04-22 18:01 27.63675 -142.22646 34240 ft 426 kts 248°
2026-04-22 18:02 27.61290 -142.28716 34235 ft 426 kts 248°
2026-04-22 18:02 27.58890 -142.34793 34219 ft 423 kts 248°
2026-04-22 18:03 27.56481 -142.40874 34233 ft 426 kts 248°
2026-04-22 18:03 27.54061 -142.46966 34231 ft 426 kts 248°
2026-04-22 18:04 27.51646 -142.53061 34243 ft 426 kts 248°
2026-04-22 18:04 27.49256 -142.59077 34232 ft 423 kts 248°
2026-04-22 18:05 27.46850 -142.65116 34234 ft 423 kts 248°
2026-04-22 18:05 27.44446 -142.71157 34220 ft 424 kts 248°
2026-04-22 18:06 27.42028 -142.77213 34236 ft 424 kts 248°
2026-04-22 18:06 27.39619 -142.83236 34232 ft 422 kts 248°
2026-04-22 18:07 27.37615 -142.88233 34230 ft 422 kts 248°
2026-04-22 18:07 27.34813 -142.95224 34227 ft 422 kts 248°
2026-04-22 18:08 27.32392 -143.01230 34232 ft 422 kts 248°
2026-04-22 18:08 27.29986 -143.07240 34220 ft 422 kts 249°
2026-04-22 18:09 27.27606 -143.13218 34223 ft 422 kts 249°
2026-04-22 18:09 27.25196 -143.19230 34225 ft 422 kts 249°
2026-04-22 18:10 27.22766 -143.25229 34225 ft 422 kts 249°
2026-04-22 18:10 27.20333 -143.31240 34223 ft 423 kts 249°
2026-04-22 18:11 27.17890 -143.37255 34207 ft 424 kts 249°
2026-04-22 18:11 27.15464 -143.43244 34214 ft 424 kts 249°
2026-04-22 18:12 27.13010 -143.49267 34225 ft 424 kts 249°
2026-04-22 18:12 27.10971 -143.54280 34216 ft 424 kts 249°
2026-04-22 18:13 27.08097 -143.61322 34217 ft 425 kts 249°
2026-04-22 18:13 27.05636 -143.67345 34219 ft 425 kts 249°
2026-04-22 18:14 27.03189 -143.73331 34213 ft 425 kts 249°
2026-04-22 18:14 27.00712 -143.79382 34218 ft 428 kts 249°
2026-04-22 18:15 26.98225 -143.85447 34210 ft 428 kts 249°
2026-04-22 18:15 26.95721 -143.91505 34208 ft 428 kts 249°
2026-04-22 18:16 26.93231 -143.97570 34213 ft 428 kts 249°
2026-04-22 18:16 26.90758 -144.03594 34213 ft 429 kts 249°
2026-04-22 18:17 26.88246 -144.09665 34204 ft 430 kts 249°
2026-04-22 18:17 26.85741 -144.15744 34213 ft 430 kts 249°
2026-04-22 18:18 26.83221 -144.21823 34211 ft 430 kts 249°
2026-04-22 18:18 26.80710 -144.27855 34213 ft 431 kts 249°
2026-04-22 18:19 26.78207 -144.33947 34209 ft 431 kts 250°
2026-04-22 18:19 26.75687 -144.40027 34212 ft 431 kts 249°
2026-04-22 18:20 26.73143 -144.46106 34203 ft 432 kts 249°
2026-04-22 18:20 26.70604 -144.52156 34211 ft 432 kts 249°
2026-04-22 18:21 26.68073 -144.58250 34205 ft 432 kts 249°
2026-04-22 18:21 26.65539 -144.64342 34205 ft 432 kts 249°
2026-04-22 18:22 26.62980 -144.70420 34206 ft 432 kts 249°
2026-04-22 18:22 26.60436 -144.76500 34182 ft 432 kts 249°
2026-04-22 18:23 26.57894 -144.82552 34199 ft 434 kts 249°
2026-04-22 18:23 26.55327 -144.88648 34204 ft 434 kts 249°
2026-04-22 18:24 26.51481 -144.97791 34203 ft 434 kts 249°
2026-04-22 18:25 26.47632 -145.06925 34207 ft 433 kts 249°
2026-04-22 18:25 26.45074 -145.12968 34204 ft 433 kts 249°
2026-04-22 18:26 26.41213 -145.22079 34200 ft 433 kts 249°
2026-04-22 18:26 26.38627 -145.28148 34198 ft 432 kts 249°
2026-04-22 18:27 26.36049 -145.34192 34197 ft 432 kts 249°
2026-04-22 18:27 26.33504 -145.40202 34198 ft 432 kts 249°
2026-04-22 18:28 26.30934 -145.46247 34201 ft 431 kts 249°
2026-04-22 18:28 26.28348 -145.52314 34196 ft 434 kts 249°
2026-04-22 18:29 26.25748 -145.58382 34191 ft 434 kts 249°
2026-04-22 18:29 26.23171 -145.64403 34192 ft 433 kts 249°
2026-04-22 18:30 26.19255 -145.73479 34195 ft 433 kts 249°
2026-04-22 18:31 26.16653 -145.79532 34198 ft 433 kts 249°
2026-04-22 18:31 26.14053 -145.85565 34186 ft 433 kts 249°
2026-04-22 18:32 26.11898 -145.90599 34188 ft 434 kts 249°
2026-04-22 18:32 26.08861 -145.97630 34189 ft 434 kts 249°
2026-04-22 18:33 26.06243 -146.03685 34186 ft 434 kts 249°
2026-04-22 18:33 26.03625 -146.09733 34189 ft 434 kts 249°
2026-04-22 18:34 26.01003 -146.15781 34186 ft 434 kts 249°
2026-04-22 18:34 25.98400 -146.21779 34169 ft 435 kts 249°
2026-04-22 18:35 25.95773 -146.27865 34180 ft 437 kts 249°
2026-04-22 18:35 25.93134 -146.33944 34185 ft 436 kts 249°
2026-04-22 18:36 25.90501 -146.40010 34189 ft 436 kts 249°
2026-04-22 18:36 25.87865 -146.46024 34181 ft 436 kts 249°
2026-04-22 18:37 25.85240 -146.52089 34185 ft 436 kts 249°
2026-04-22 18:37 25.83037 -146.57120 34187 ft 436 kts 248°
2026-04-22 18:38 25.79904 -146.64201 34182 ft 438 kts 249°
2026-04-22 18:38 25.77239 -146.70274 34182 ft 438 kts 249°
2026-04-22 18:39 25.73261 -146.79335 34179 ft 438 kts 249°
2026-04-22 18:39 25.70593 -146.85401 34180 ft 437 kts 249°
2026-04-22 18:40 25.67927 -146.91453 34178 ft 436 kts 249°
2026-04-22 18:40 25.65264 -146.97506 34172 ft 438 kts 249°
2026-04-22 18:41 25.62612 -147.03539 34180 ft 439 kts 249°
2026-04-22 18:41 25.59954 -147.09628 34180 ft 439 kts 249°
2026-04-22 18:42 25.57274 -147.15699 34181 ft 438 kts 249°
2026-04-22 18:42 25.54584 -147.21758 34176 ft 438 kts 249°
2026-04-22 18:43 25.51911 -147.27773 34181 ft 438 kts 249°
2026-04-22 18:43 25.49225 -147.33830 34173 ft 439 kts 249°
2026-04-22 18:44 25.46521 -147.39908 34181 ft 441 kts 249°
2026-04-22 18:44 25.43811 -147.45981 34178 ft 440 kts 250°
2026-04-22 18:45 25.41103 -147.52046 34177 ft 440 kts 250°
2026-04-22 18:45 25.38403 -147.58066 34177 ft 440 kts 250°
2026-04-22 18:46 25.35697 -147.64129 34172 ft 440 kts 250°
2026-04-22 18:46 25.32981 -147.70175 34161 ft 439 kts 250°
2026-04-22 18:47 25.30262 -147.76237 34173 ft 441 kts 250°
2026-04-22 18:47 25.27994 -147.81283 34172 ft 441 kts 250°
2026-04-22 18:48 25.24822 -147.88342 34170 ft 441 kts 250°
2026-04-22 18:48 25.22099 -147.94416 34166 ft 440 kts 250°
2026-04-22 18:49 25.19361 -148.00444 34172 ft 439 kts 249°
2026-04-22 18:49 25.17096 -148.05459 34172 ft 439 kts 250°
2026-04-22 18:50 25.13916 -148.12479 34168 ft 441 kts 250°
2026-04-22 18:50 25.11180 -148.18545 34171 ft 442 kts 250°
2026-04-22 18:51 25.08888 -148.23584 34169 ft 441 kts 250°
2026-04-22 18:51 25.06142 -148.29635 34171 ft 441 kts 250°
2026-04-22 18:52 25.02948 -148.36669 34173 ft 441 kts 250°
2026-04-22 18:52 25.00636 -148.41737 34173 ft 442 kts 249°
2026-04-22 18:53 24.97900 -148.47740 34162 ft 442 kts 250°
2026-04-22 18:53 24.95143 -148.53805 34164 ft 443 kts 249°
2026-04-22 18:54 24.92363 -148.59871 34167 ft 444 kts 249°
2026-04-22 18:54 24.89588 -148.65941 34170 ft 444 kts 249°
2026-04-22 18:55 24.86812 -148.71957 34166 ft 443 kts 249°
2026-04-22 18:55 24.84028 -148.78020 34167 ft 443 kts 249°
2026-04-22 18:56 24.81251 -148.84083 34166 ft 444 kts 249°
2026-04-22 18:56 24.78466 -148.90142 34172 ft 443 kts 249°
2026-04-22 18:57 24.75689 -148.96157 34168 ft 443 kts 249°
2026-04-22 18:57 24.72899 -149.02204 34167 ft 443 kts 249°
2026-04-22 18:58 24.70109 -149.08255 34161 ft 443 kts 249°
2026-04-22 18:58 24.67328 -149.14299 34165 ft 443 kts 249°
2026-04-22 18:59 24.64531 -149.20331 34169 ft 443 kts 249°
2026-04-22 18:59 24.61741 -149.26322 34150 ft 444 kts 249°
2026-04-22 19:00 24.58897 -149.32357 34149 ft 445 kts 249°
2026-04-22 19:00 24.56079 -149.38399 34168 ft 444 kts 249°
2026-04-22 19:01 24.53268 -149.44443 34167 ft 444 kts 249°
2026-04-22 19:01 24.50473 -149.50439 34167 ft 444 kts 249°
2026-04-22 19:02 24.47653 -149.56478 34165 ft 444 kts 249°
2026-04-22 19:02 24.44828 -149.62516 34158 ft 445 kts 249°
2026-04-22 19:03 24.42000 -149.68556 34160 ft 445 kts 249°
2026-04-22 19:03 24.39177 -149.74602 34162 ft 445 kts 249°
2026-04-22 19:04 24.36389 -149.80616 34162 ft 445 kts 249°
2026-04-22 19:04 24.33549 -149.86651 34162 ft 446 kts 248°
2026-04-22 19:05 24.30699 -149.92692 34165 ft 446 kts 249°
2026-04-22 19:05 24.27862 -149.98745 34165 ft 447 kts 248°
2026-04-22 19:06 24.24973 -150.04780 34153 ft 447 kts 248°
2026-04-22 19:07 24.20697 -150.13814 34161 ft 447 kts 248°
2026-04-22 19:07 24.17838 -150.19864 34158 ft 448 kts 248°
2026-04-22 19:08 24.14965 -150.25931 34162 ft 449 kts 248°
2026-04-22 19:08 24.12107 -150.31958 34162 ft 449 kts 248°
2026-04-22 19:09 24.09232 -150.38021 34161 ft 449 kts 248°
2026-04-22 19:09 24.06351 -150.44086 34158 ft 449 kts 248°
2026-04-22 19:10 24.03491 -150.50158 34155 ft 450 kts 248°
2026-04-22 19:10 24.00583 -150.56227 34159 ft 451 kts 248°
2026-04-22 19:11 23.97691 -150.62258 34162 ft 450 kts 248°
2026-04-22 19:11 23.94807 -150.68339 34159 ft 450 kts 248°
2026-04-22 19:12 23.91911 -150.74411 34156 ft 451 kts 248°
2026-04-22 19:12 23.88991 -150.80474 34159 ft 451 kts 248°
2026-04-22 19:13 23.86100 -150.86504 34153 ft 451 kts 248°
2026-04-22 19:13 23.83182 -150.92566 34161 ft 451 kts 248°
2026-04-22 19:14 23.80273 -150.98627 34157 ft 451 kts 248°
2026-04-22 19:14 23.77357 -151.04686 34154 ft 451 kts 247°
2026-04-22 19:15 23.74455 -151.10698 34157 ft 451 kts 247°
2026-04-22 19:15 23.71535 -151.16749 34159 ft 451 kts 247°
2026-04-22 19:16 23.68599 -151.22789 34161 ft 451 kts 247°
2026-04-22 19:16 23.65679 -151.28837 34155 ft 450 kts 247°
2026-04-22 19:17 23.62757 -151.34872 34160 ft 450 kts 247°
2026-04-22 19:17 23.59826 -151.40844 34160 ft 450 kts 246°
2026-04-22 19:18 23.56887 -151.46863 34162 ft 449 kts 247°
2026-04-22 19:18 23.53960 -151.52882 34164 ft 450 kts 247°
2026-04-22 19:19 23.51032 -151.58896 34156 ft 447 kts 247°
2026-04-22 19:19 23.48119 -151.64874 34160 ft 447 kts 247°
2026-04-22 19:20 23.45232 -151.70816 34153 ft 447 kts 246°
2026-04-22 19:20 23.42304 -151.76792 34162 ft 447 kts 246°
2026-04-22 19:21 23.39379 -151.82767 34160 ft 447 kts 246°
2026-04-22 19:21 23.36451 -151.88738 34158 ft 447 kts 247°
2026-04-22 19:22 23.33532 -151.94708 34156 ft 446 kts 246°
2026-04-22 19:22 23.30635 -152.00630 34161 ft 446 kts 246°
2026-04-22 19:23 23.27705 -152.06582 34162 ft 446 kts 246°
2026-04-22 19:23 23.24771 -152.12546 34158 ft 448 kts 246°
2026-04-22 19:24 23.21823 -152.18519 34158 ft 449 kts 246°
2026-04-22 19:24 23.18895 -152.24454 34160 ft 449 kts 246°
2026-04-22 19:25 23.15932 -152.30420 34155 ft 448 kts 246°
2026-04-22 19:25 23.12981 -152.36390 34159 ft 448 kts 246°
2026-04-22 19:26 23.10027 -152.42355 34165 ft 448 kts 246°
2026-04-22 19:26 23.07083 -152.48272 34163 ft 448 kts 246°
2026-04-22 19:27 23.04126 -152.54241 34146 ft 449 kts 245°
2026-04-22 19:27 23.01169 -152.60202 34163 ft 449 kts 245°
2026-04-22 19:28 22.98185 -152.66147 34164 ft 449 kts 245°
2026-04-22 19:28 22.95206 -152.72095 34156 ft 449 kts 245°
2026-04-22 19:29 22.92238 -152.77999 34165 ft 449 kts 245°
2026-04-22 19:29 22.89252 -152.83942 34154 ft 448 kts 245°
2026-04-22 19:30 22.86754 -152.88914 34157 ft 448 kts 245°
2026-04-22 19:30 22.83282 -152.95805 34156 ft 448 kts 245°
2026-04-22 19:31 22.80293 -153.01735 34157 ft 448 kts 245°
2026-04-22 19:31 22.77299 -153.07663 34157 ft 448 kts 245°
2026-04-22 19:32 22.74321 -153.13544 34148 ft 448 kts 244°
2026-04-22 19:32 22.71327 -153.19460 34156 ft 448 kts 244°
2026-04-22 19:33 22.68333 -153.25367 34160 ft 448 kts 244°
2026-04-22 19:33 22.65334 -153.31276 34161 ft 448 kts 244°
2026-04-22 19:34 22.62334 -153.37184 34155 ft 448 kts 244°
2026-04-22 19:34 22.59323 -153.43091 34158 ft 448 kts 244°
2026-04-22 19:35 22.56335 -153.48963 34158 ft 448 kts 244°
2026-04-22 19:35 22.53324 -153.54868 34159 ft 448 kts 244°
2026-04-22 19:36 22.50310 -153.60771 34157 ft 448 kts 244°
2026-04-22 19:36 22.47291 -153.66674 34156 ft 448 kts 244°
2026-04-22 19:37 22.44272 -153.72572 34158 ft 448 kts 244°
2026-04-22 19:37 22.41268 -153.78431 34145 ft 449 kts 244°
2026-04-22 19:38 22.38242 -153.84340 34153 ft 450 kts 244°
2026-04-22 19:38 22.35117 -153.90200 34155 ft 451 kts 241°
2026-04-22 19:39 22.31822 -153.95960 34154 ft 451 kts 241°
2026-04-22 19:39 22.28554 -154.01684 34152 ft 451 kts 241°
2026-04-22 19:40 22.25258 -154.07441 34150 ft 451 kts 241°
2026-04-22 19:40 22.21971 -154.13200 34152 ft 451 kts 241°
2026-04-22 19:41 22.18677 -154.18955 34143 ft 451 kts 241°
2026-04-22 19:41 22.15375 -154.24715 34152 ft 452 kts 241°
2026-04-22 19:42 22.12073 -154.30477 34154 ft 452 kts 241°
2026-04-22 19:42 22.08766 -154.36235 34152 ft 452 kts 241°
2026-04-22 19:43 22.03835 -154.44810 34154 ft 450 kts 241°
2026-04-22 19:43 22.00532 -154.50545 34153 ft 450 kts 241°
2026-04-22 19:44 21.97219 -154.56281 34147 ft 450 kts 241°
2026-04-22 19:44 21.94043 -154.62077 34145 ft 449 kts 244°
2026-04-22 19:45 21.91093 -154.67946 34149 ft 449 kts 244°
2026-04-22 19:45 21.88108 -154.73851 34155 ft 449 kts 244°
2026-04-22 19:46 21.85137 -154.79751 34145 ft 446 kts 245°
2026-04-22 19:46 21.82217 -154.85559 33735 ft 437 kts 244°
2026-04-22 19:47 21.80758 -154.88452 32899 ft 441 kts 244°
2026-04-22 19:47 21.79293 -154.91350 32234 ft 442 kts 244°
2026-04-22 19:47 21.77826 -154.94253 31607 ft 441 kts 244°
2026-04-22 19:47 21.76378 -154.97116 31008 ft 441 kts 244°
2026-04-22 19:48 21.74914 -155.00009 30425 ft 442 kts 244°
2026-04-22 19:48 21.73447 -155.02907 29703 ft 441 kts 243°
2026-04-22 19:48 21.71977 -155.05804 29019 ft 441 kts 243°
2026-04-22 19:48 21.70515 -155.08682 28412 ft 437 kts 243°
2026-04-22 19:49 21.69068 -155.11536 27830 ft 432 kts 243°
2026-04-22 19:49 21.67636 -155.14358 27269 ft 428 kts 243°
2026-04-22 19:49 21.66200 -155.17191 26754 ft 432 kts 243°
2026-04-22 19:49 21.64762 -155.20023 26224 ft 430 kts 243°
2026-04-22 19:50 21.63340 -155.22822 25660 ft 424 kts 243°
2026-04-22 19:50 21.61931 -155.25592 25105 ft 421 kts 243°
2026-04-22 19:50 21.60532 -155.28337 24543 ft 417 kts 243°
2026-04-22 19:50 21.59165 -155.31020 23989 ft 413 kts 243°
2026-04-22 19:51 21.57792 -155.33712 23403 ft 409 kts 243°
2026-04-22 19:51 21.56427 -155.36386 22802 ft 407 kts 243°
2026-04-22 19:51 21.55071 -155.39051 22211 ft 405 kts 243°
2026-04-22 19:51 21.53719 -155.41702 21633 ft 404 kts 243°
2026-04-22 19:52 21.52370 -155.44341 21090 ft 402 kts 243°
2026-04-22 19:52 21.51033 -155.46964 20558 ft 399 kts 243°
2026-04-22 19:52 21.49703 -155.49571 20051 ft 397 kts 243°
2026-04-22 19:52 21.48381 -155.52156 19555 ft 394 kts 243°
2026-04-22 19:53 21.47068 -155.54727 19074 ft 392 kts 243°
2026-04-22 19:53 21.45756 -155.57288 18593 ft 391 kts 243°
2026-04-22 19:53 21.44443 -155.59847 18104 ft 391 kts 243°
2026-04-22 19:53 21.43157 -155.62362 17589 ft 388 kts 243°
2026-04-22 19:54 21.41866 -155.64884 17026 ft 384 kts 243°
2026-04-22 19:54 21.40579 -155.67395 16494 ft 385 kts 243°
2026-04-22 19:54 21.39284 -155.69919 16004 ft 385 kts 243°
2026-04-22 19:54 21.37997 -155.72428 15538 ft 384 kts 243°
2026-04-22 19:55 21.36704 -155.74940 15080 ft 384 kts 243°
2026-04-22 19:55 21.35415 -155.77448 14609 ft 384 kts 243°
2026-04-22 19:55 21.34128 -155.79958 14139 ft 384 kts 243°
2026-04-22 19:55 21.32836 -155.82464 13652 ft 384 kts 243°
2026-04-22 19:56 21.31552 -155.84968 13152 ft 383 kts 243°
2026-04-22 19:56 21.30268 -155.87465 12681 ft 381 kts 243°
2026-04-22 19:56 21.29008 -155.89907 12249 ft 378 kts 243°
2026-04-22 19:56 21.27735 -155.92370 11787 ft 376 kts 242°
2026-04-22 19:57 21.26475 -155.94818 11335 ft 373 kts 242°
2026-04-22 19:57 21.25243 -155.97215 11036 ft 360 kts 242°
2026-04-22 19:57 21.24054 -155.99507 10777 ft 343 kts 242°
2026-04-22 19:57 21.22929 -156.01689 10566 ft 327 kts 242°
2026-04-22 19:58 21.21858 -156.03771 10389 ft 311 kts 242°
2026-04-22 19:58 21.20852 -156.05722 10228 ft 296 kts 242°
2026-04-22 19:58 21.19860 -156.07640 10017 ft 287 kts 242°
2026-04-22 19:58 21.18911 -156.09471 9668 ft 284 kts 242°
2026-04-22 19:59 21.17959 -156.11315 9287 ft 282 kts 241°
2026-04-22 20:00 21.09067 -156.18908 7848 ft 250 kts 217°
2026-04-22 20:00 21.07664 -156.19975 7589 ft 246 kts 217°
2026-04-22 20:01 21.06276 -156.21030 7297 ft 245 kts 216°
2026-04-22 20:01 21.04888 -156.22099 7110 ft 246 kts 217°
2026-04-22 20:01 21.03501 -156.23169 7031 ft 246 kts 216°
2026-04-22 20:01 21.02133 -156.24223 7080 ft 247 kts 217°
2026-04-22 20:02 21.00730 -156.25295 7052 ft 248 kts 216°
2026-04-22 20:02 20.99340 -156.26344 7031 ft 239 kts 216°
2026-04-22 20:02 20.97993 -156.27362 6822 ft 236 kts 216°
2026-04-22 20:02 20.96655 -156.28374 6535 ft 236 kts 216°
2026-04-22 20:03 20.95311 -156.29389 6221 ft 238 kts 216°
2026-04-22 20:03 20.93961 -156.30410 5934 ft 238 kts 215°
2026-04-22 20:03 20.92606 -156.31424 5602 ft 238 kts 215°
2026-04-22 20:03 20.91250 -156.32445 5294 ft 238 kts 214°
2026-04-22 20:04 20.89920 -156.33449 5036 ft 235 kts 215°
2026-04-22 20:04 20.88594 -156.34463 4866 ft 234 kts 215°
2026-04-22 20:04 20.87262 -156.35488 4478 ft 238 kts 215°
2026-04-22 20:04 20.85930 -156.36502 4288 ft 232 kts 215°
2026-04-22 20:05 20.84615 -156.37493 4063 ft 229 kts 214°
2026-04-22 20:05 20.83319 -156.38445 3775 ft 223 kts 214°
2026-04-22 20:05 20.82072 -156.39352 3483 ft 210 kts 214°
2026-04-22 20:05 20.80894 -156.40225 3176 ft 201 kts 214°
2026-04-22 20:06 20.79915 -156.41213 2869 ft 188 kts 236°
2026-04-22 20:06 20.79384 -156.42448 2560 ft 180 kts 252°
2026-04-22 20:06 20.79188 -156.43686 2323 ft 162 kts 269°
2026-04-22 20:06 20.79298 -156.44851 2127 ft 157 kts 285°
2026-04-22 20:07 20.79703 -156.45912 1918 ft 152 kts 300°
2026-04-22 20:07 20.80289 -156.46771 1655 ft 136 kts 316°
2026-04-22 20:07 20.81037 -156.47364 1310 ft 133 kts 332°
2026-04-22 20:07 20.81916 -156.47683 1242 ft 134 kts 348°
2026-04-22 20:08 20.82847 -156.47714 1223 ft 135 kts
2026-04-22 20:08 20.83746 -156.47445 1207 ft 135 kts 24°
2026-04-22 20:08 20.84544 -156.46916 1213 ft 135 kts 33°
2026-04-22 20:08 20.85302 -156.46322 1050 ft 135 kts 34°
2026-04-22 20:09 20.86049 -156.45750 855 ft 133 kts 33°
2026-04-22 20:09 20.86807 -156.45194 695 ft 131 kts 32°
2026-04-22 20:09 20.87543 -156.44645 413 ft 128 kts 33°
2026-04-22 20:09 20.88273 -156.44106 236 ft 126 kts 33°
2026-04-22 20:10 20.88991 -156.43575 51 ft 125 kts 33°
2026-04-22 20:10 20.89620 -156.43109 37 ft 76 kts 34°
2026-04-22 20:10 20.89914 -156.42896 33 ft 39 kts 35°
2026-04-22 20:10 20.90112 -156.42747 33 ft 35 kts 35°
2026-04-22 20:11 20.90289 -156.42615 33 ft 22 kts 35°
2026-04-22 20:11 20.90398 -156.42534 35 ft 19 kts 35°
2026-04-22 20:11 20.90453 -156.42512 35 ft 8 kts 346°
2026-04-22 20:11 20.90484 -156.42542 35 ft 6 kts 275°
2026-04-22 20:12 20.90474 -156.42594 34 ft 8 kts 247°
2026-04-22 20:12 20.90444 -156.42651 34 ft 8 kts 227°
2026-04-22 20:12 20.90421 -156.42671 34 ft 6 kts 217°
2026-04-22 20:12 20.90364 -156.42715 34 ft 9 kts 214°
2026-04-22 20:13 20.90305 -156.42759 34 ft 12 kts 214°
2026-04-22 20:13 20.90233 -156.42812 34 ft 14 kts 214°
2026-04-22 20:13 20.90148 -156.42875 33 ft 16 kts 214°
2026-04-22 20:13 20.90076 -156.42928 33 ft 9 kts 214°
2026-04-22 20:14 20.90014 -156.42974 34 ft 12 kts 214°
2026-04-22 20:14 20.89938 -156.43031 35 ft 15 kts 215°
2026-04-22 20:14 20.89848 -156.43099 35 ft 17 kts 215°
2026-04-22 20:14 20.89748 -156.43172 36 ft 17 kts 214°
2026-04-22 20:15 20.89669 -156.43231 36 ft 11 kts 215°
2026-04-22 20:15 20.89602 -156.43282 36 ft 12 kts 214°
2026-04-22 20:15 20.89550 -156.43321 36 ft 7 kts 214°
2026-04-22 20:15 20.89522 -156.43349 36 ft 3 kts 263°
2026-04-22 20:16 20.89529 -156.43382 36 ft 6 kts 294°
2026-04-22 20:16 20.89548 -156.43418 37 ft 6 kts 305°
2026-04-22 20:16 20.89561 -156.43437 37 ft 3 kts 304°
2026-04-22 20:16 20.89570 -156.43452 37 ft 1 kts 304°
2026-04-22 20:17 20.89574 -156.43458 37 ft 0 kts 305°